Regional Weather Roundup
Issued by NWS

Home | Current Version | Previous Version | Graphics & Text | Print | Product List | Glossary On
Versions: 1 2 3 4 5 6 7 8 9 10 11 12 13 14 15 16 17 18 19 20 21 22 23 24 25 26 27 28 29 30 31 32 33 34 35 36 37 38 39 40 41 42 43 44 45 46 47 48 49 50
000
ASUS44 KMEG 010400
RWRTN
TENNESSEE HOURLY STATE WEATHER ROUNDUP
NATIONAL WEATHER SERVICE MEMPHIS TN
1100 PM CDT TUE MAR 31 2015

TNZ002-004-019-021-049-052-054-088>092-010500-
WEST TENNESSEE

CITY           SKY/WX    TMP DP  RH WIND       PRES   REMARKS
MEMPHIS INTL   TSTM      69  62  78 NE6       29.94S
NWS MEMPHIS      N/A     68 N/A N/A MISG        N/A
JACKSON        RAIN      61  56  83 SW9       29.98F
DYERSBURG      CLOUDY    59  45  58 NE6       29.95F
UNION CITY     CLEAR     57  55  94 NE6       29.96S
PARIS          CLEAR     54  45  71 N7        29.99R
LEXINGTON      MOCLDY    63  57  82 S5        29.97R
SAVANNAH       CLOUDY    59  59 100 W8        29.98S
$$

TNZ008-025-027-028-033-062-065-066-010500-
NORTH MIDDLE TENNESSEE

CITY           SKY/WX    TMP DP  RH WIND       PRES   REMARKS
NASHVILLE      PTCLDY    64  38  38 N10       29.96R
CLARKSVILLE    CLEAR     54  38  54 N7        29.99R
COOKEVILLE     CLEAR     55  43  62 N6          N/A
CROSSVILLE     CLEAR     59  37  44 N3        29.97R
$$

TNZ061-075-076-078-094-096-097-010500-
SOUTH MIDDLE TENNESSEE

CITY           SKY/WX    TMP DP  RH WIND       PRES   REMARKS
FAYETTEVILLE   CLEAR     61  54  77 CALM      29.95R
TULLAHOMA      CLEAR     61  55  82 CALM      29.97R
WINCHESTER     CLEAR     64  55  72 W5        29.95S
COLUMBIA       PTCLDY    66  61  82 W3        29.94S
SHELBYVILLE    CLEAR     61  54  77 CALM      29.96S
$$

TNZ017-018-042-046-047-010500-
NORTHEAST TENNESSEE

CITY           SKY/WX    TMP DP  RH WIND       PRES   REMARKS
TRI CITIES     CLEAR     63  37  38 NW10      29.91R
ELIZABETHTON   CLEAR     48  43  81 CALM      29.90R
$$

TNZ012-013-036-069-073-074-010500-
CENTRAL EAST TENNESSEE

CITY           SKY/WX    TMP DP  RH WIND       PRES   REMARKS
KNOXVILLE      PTCLDY    63  41  44 W6        29.91R
OAK RIDGE      CLEAR     59  42  53 VRB3      29.93R
GATLINBURG     CLEAR     63  43  48 N3        29.91R
$$

TNZ083-085-099-010500-
SOUTHEAST TENNESSEE

CITY           SKY/WX    TMP DP  RH WIND       PRES   REMARKS
CHATTANOOGA    MOCLDY    65  58  78 S5        29.93S
$$

SKY/WX REPORTED AS FAIR MEANS FEW OR NO CLOUDS BELOW
12 THOUSAND FEET.



USA.gov is the U.S. government's official web portal to all federal, state and local government web resources and services.